This is the latest recevied weather packets stored in our database for station/object K4MZ. If no packets are shown the sender has not sent any weather packets the latest 10 day(s).
| Time | Temp. | Humidity | Pressure | Rain* | Wind** | Luminosity | Snow |
|---|---|---|---|---|---|---|---|
| 1778179517 | 12.78° C | 91% | 1011 hPa | 0 mm | - | 181 W/m² | - |
| 1778178937 | 12.78° C | 91% | 1011.1 hPa | 0 mm | - | 166 W/m² | - |
| 1778178339 | 12.78° C | 91% | 1011 hPa | 0 mm | - | 235 W/m² | - |
| 1778177718 | 12.78° C | 91% | 1011.2 hPa | 0 mm | - | 172 W/m² | - |
| 1778177138 | 12.78° C | 91% | 1011.1 hPa | 0 mm | - | 166 W/m² | - |
| 1778176520 | 12.78° C | 91% | 1011.1 hPa | 0 mm | - | 105 W/m² | - |
| 1778175939 | 12.22° C | 92% | 1011 hPa | 0 mm | - | 123 W/m² | - |
| 1778175318 | 12.78° C | 92% | 1010.9 hPa | 0 mm | - | 193 W/m² | - |
| 1778174758 | 12.78° C | 92% | 1010.9 hPa | 0 mm | - | 177 W/m² | - |
| 1778174158 | 12.78° C | 93% | 1010.6 hPa | 0 mm | - | 255 W/m² | - |
| 1778173538 | 12.78° C | 93% | 1010.6 hPa | 0 mm | - | 259 W/m² | - |
| 1778172959 | 12.78° C | 93% | 1010.9 hPa | 0 mm | - | 172 W/m² | - |
| 1778172379 | 12.78° C | 93% | 1011.1 hPa | 0 mm | - | 180 W/m² | - |
| 1778171759 | 12.22° C | 93% | 1011.3 hPa | 0 mm | - | 155 W/m² | - |
| 1778171119 | 12.78° C | 93% | 1011.1 hPa | 0 mm | - | 152 W/m² | - |
| 1778170539 | 12.78° C | 93% | 1011.1 hPa | 0 mm | - | 137 W/m² | - |
| 1778170020 | 12.78° C | 93% | 1011.3 hPa | 0 mm | - | 50 W/m² | - |
| 1778169339 | 12.78° C | 92% | 1011.3 hPa | 0 mm | - | 75 W/m² | - |
| 1778168719 | 13.33° C | 92% | 1011.2 hPa | 0 mm | - | 99 W/m² | - |
| 1778168120 | 13.33° C | 92% | 1011.2 hPa | 0 mm | - | 49 W/m² | - |
| 1778167520 | 13.89° C | 92% | 1011.4 hPa | 0 mm | - | 45 W/m² | - |
| 1778166920 | 15° C | 92% | 1011 hPa | 0 mm | - | 60 W/m² | - |
| 1778166360 | 15.56° C | 93% | 1010.8 hPa | 0 mm | - | 34 W/m² | - |
| 1778165761 | 15.56° C | 93% | 1010.5 hPa | 0 mm | - | 71 W/m² | - |
| 1778165120 | 16.11° C | 93% | 1010.3 hPa | 0 mm | - | 111 W/m² | - |
* Rain latest hour (hover to see other rain measurements)
** Current wind speed in m/s (hover to see current wind gust speed)